Location: Unspecified
(41.5000°N, 0.0000°E)
Time: 02:35:15
(UTC+00:00)

A-11 Canister half - Pass Details

Date: 28 June 2019
Orbit: 1526 x 1683 km, 47.3° (Epoch: 21 July)

Event Time Altitude Azimuth Distance (km) Brightness Sun altitude
Exits shadow 00:43:40 22° 142° (SE) 2,942 10.1 -24.5°
Maximum altitude 00:45:16 23° 128° (SE) 2,878 10.2 -24.5°
Drops below altitude 10° 00:52:08 10° 81° (E) 3,741 11.3 -24.2°
Sets 00:55:58 0° 68° (ENE) 4,709 12.0 -24.1°
